Phnom Penh, Cambodia

8:43 AM +07 on August 18, 2017 (GMT +0700)
Pochentong International

Weather History for VDPP - August, 2013

Change the Weather History Date:

Sunday, August 25, 2013

  Actual Average Record
Temperature  
Mean Temperature 84 °F -  
Max Temperature 89 °F 86 °F 95 °F (2010)
Min Temperature 78 °F 76 °F 75 °F (2003)
Cooling Degree Days 18    
Growing Degree Days 34 (Base 50)    
Moisture  
Dew Point 73 °F    
Average Humidity 68    
Maximum Humidity 83    
Minimum Humidity 55    
Precipitation  
Precipitation 0.00 in - - ()
Sea Level Pressure  
Sea Level Pressure 29.71 in    
Wind  
Wind Speed 8 mph ()    
Max Wind Speed 17 mph    
Max Gust Speed -    
Visibility 6.0 miles    
Events Rain    
Averages and records for this station are not official NWS values.
T = Trace of Precipitation, MM = Missing Value Source: Averaged Metar Reports

Daily Weather History Graph

Daily Weather History Graph

Search for Another Location

Airport or City:

Trip Planner

Search our weather history database for the weather conditions in past years. The results will help you decide how hot, cold, wet, or windy it might be!

Date:

Astronomy

Aug. 25, 2013 Rise Set
Actual Time 5:50 AM +07 6:14 PM +07
Civil Twilight 5:28 AM +07 6:36 PM +07
Nautical Twilight 5:03 AM +07 7:01 PM +07
Astronomical Twilight 4:38 AM +07 7:26 PM +07
Moon 9:27 PM +07 (8/25) 9:21 AM +07 (8/25)
Length of Visible Light 13h 07m
Length of Day
12h 24m
Waning Gibbous, 80% of the Moon is Illuminated
Aug 25
Waning Gibbous
Aug 28
Last Quarter
Sep 5
New
Sep 13
First Quarter
Sep 19
Full

Hourly Weather History & Observations

Time (+07) Temp. Heat Index Dew Point Humidity Pressure Visibility Wind Dir Wind Speed Gust Speed Precip Events Conditions
12:00 AM 80.6 °F 85.4 °F 73.4 °F 79% 29.74 in 5.6 mi SSW 8.1 mph - N/A   Mostly Cloudy
12:30 AM 80.6 °F 85.4 °F 73.4 °F 79% 29.74 in 5.6 mi SSW 8.1 mph - N/A   Mostly Cloudy
1:00 AM 78.8 °F - 73.4 °F 83% 29.71 in 5.6 mi Calm Calm - N/A   Mostly Cloudy
7:00 AM 80.6 °F 85.4 °F 73.4 °F 79% 29.71 in 5.6 mi SSW 10.4 mph - N/A   Mostly Cloudy
7:30 AM 82.4 °F 88.2 °F 73.4 °F 74% 29.74 in 6.2 mi SSW 6.9 mph - N/A   Mostly Cloudy
8:00 AM 84.2 °F 90.9 °F 73.4 °F 70% 29.74 in 6.2 mi South 11.5 mph - N/A   Scattered Clouds
8:30 AM 86.0 °F 95.1 °F 75.2 °F 70% 29.74 in 6.2 mi South 9.2 mph - N/A   Scattered Clouds
9:00 AM 86.0 °F 93.4 °F 73.4 °F 66% 29.74 in 6.2 mi SW 5.8 mph - N/A   Scattered Clouds
9:30 AM 87.8 °F 95.6 °F 73.4 °F 62% 29.74 in 6.2 mi West 6.9 mph - N/A   Scattered Clouds
10:00 AM 87.8 °F 93.8 °F 71.6 °F 58% 29.74 in 6.2 mi West 12.7 mph - N/A   Scattered Clouds
10:30 AM 89.6 °F 96.2 °F 71.6 °F 55% 29.74 in 6.2 mi West 11.5 mph - N/A   Scattered Clouds
11:00 AM 89.6 °F 96.2 °F 71.6 °F 55% 29.74 in 6.2 mi WSW 12.7 mph - N/A   Partly Cloudy
11:30 AM 84.2 °F 90.9 °F 73.4 °F 70% 29.74 in 3.1 mi WSW 11.5 mph - N/A Rain Rain
12:00 PM 86.0 °F 93.4 °F 73.4 °F 66% 29.71 in 5.6 mi WSW 5.8 mph - N/A   Partly Cloudy
12:30 PM 87.8 °F 95.6 °F 73.4 °F 62% 29.71 in 5.6 mi SW 5.8 mph - N/A   Partly Cloudy
1:00 PM 89.6 °F 99.8 °F 75.2 °F 62% 29.71 in 6.2 mi SW 17.3 mph - N/A   Partly Cloudy
1:30 PM 86.0 °F 95.1 °F 75.2 °F 70% 29.68 in 5.6 mi SW 11.5 mph - N/A   Scattered Clouds
2:00 PM 86.0 °F 91.8 °F 71.6 °F 62% 29.65 in 6.2 mi WSW 12.7 mph - N/A   Scattered Clouds
2:30 PM 87.8 °F 95.6 °F 73.4 °F 62% 29.68 in 6.2 mi WSW 11.5 mph - N/A   Scattered Clouds
3:00 PM 87.8 °F 93.8 °F 71.6 °F 58% 29.68 in 6.2 mi WSW 11.5 mph - N/A   Scattered Clouds
3:30 PM 87.8 °F 93.8 °F 71.6 °F 58% 29.68 in 6.2 mi WSW 13.8 mph - N/A   Scattered Clouds
4:00 PM 87.8 °F 93.8 °F 71.6 °F 58% 29.65 in 6.2 mi WSW 15.0 mph - N/A   Scattered Clouds
4:30 PM 87.8 °F 93.8 °F 71.6 °F 58% 29.65 in 6.2 mi SW 17.3 mph - N/A   Scattered Clouds
5:00 PM 87.8 °F 93.8 °F 71.6 °F 58% 29.65 in 6.2 mi SW 16.1 mph - N/A   Partly Cloudy
5:30 PM 87.8 °F 93.8 °F 71.6 °F 58% 29.65 in 6.2 mi SW 11.5 mph - N/A   Partly Cloudy
6:00 PM 87.8 °F 95.6 °F 73.4 °F 62% 29.68 in 6.2 mi SW 10.4 mph - N/A   Partly Cloudy
6:30 PM 86.0 °F 93.4 °F 73.4 °F 66% 29.68 in 6.2 mi SW 12.7 mph - N/A   Partly Cloudy
7:00 PM 84.2 °F 90.9 °F 73.4 °F 70% 29.68 in 6.2 mi SSW 6.9 mph - N/A   Partly Cloudy
7:30 PM 84.2 °F 92.3 °F 75.2 °F 74% 29.68 in 6.2 mi SW 9.2 mph - N/A   Partly Cloudy
8:00 PM 82.4 °F 89.5 °F 75.2 °F 79% 29.71 in 6.2 mi South 6.9 mph - N/A   Partly Cloudy
9:00 PM 82.4 °F 89.5 °F 75.2 °F 79% 29.74 in 6.2 mi South 4.6 mph - N/A   Partly Cloudy
9:30 PM 82.4 °F 89.5 °F 75.2 °F 79% 29.74 in 6.2 mi SSE 3.5 mph - N/A   Scattered Clouds
10:00 PM 82.4 °F 89.5 °F 75.2 °F 79% 29.74 in 6.2 mi South 4.6 mph - N/A   Scattered Clouds
10:30 PM 82.4 °F 89.5 °F 75.2 °F 79% 29.77 in 6.2 mi South 4.6 mph - N/A   Scattered Clouds
11:00 PM 82.4 °F 89.5 °F 75.2 °F 79% 29.77 in 6.2 mi South 4.6 mph - N/A   Scattered Clouds